Temperature
21 21 21 21 19 17 19 21 21 22 23 24 24 24 23 22 21 21 21 22 21 21 20 20 20 20 20 20 20 20 20 20 20 20 19 19 19 19 19 19 19 19 19 18 18 18 18 18 18
21 21 21 21 18 19 20 21 21 22 23 24 24 23 22 21 21 21 21 21 21 21 21 20 20 20 20 20 20 20 20 20 19 19 19 19 19 19 19 19 19 19 18 18 18 18 18 18 18
21 21 21 17 18 19 22 22 22 23 24 24 23 22 21 21 21 21 22 21 21 21 21 20 20 20 20 20 20 20 20 20 19 19 19 19 19 19 19 19 19 18 18 18 18 18 18 18 18
21 21 20 17 20 19 20 22 22 23 23 23 22 21 21 21 21 22 22 21 21 21 20 20 20 20 20 20 20 20 20 19 19 19 19 19 19 19 19 19 18 18 18 18 18 18 18 18 18
21 21 18 18 19 19 20 21 22 22 22 22 22 20 20 21 21 21 21 21 21 21 20 20 20 20 20 20 20 19 19 19 19 19 19 19 19 19 19 18 18 18 18 18 18 18 18 18 17
22 18 17 18 20 20 21 22 22 22 22 22 21 20 20 20 21 21 21 21 21 21 20 20 20 20 20 20 19 19 19 19 19 19 19 19 19 19 18 18 18 18 18 18 18 18 18 18 17
20 17 18 20 20 20 22 22 22 21 21 21 21 20 20 20 21 21 21 20 20 20 20 20 20 20 20 19 19 19 19 19 19 19 19 18 18 18 18 18 18 18 18 18 18 18 18 18 18
22 17 19 19 20 21 22 22 22 22 21 21 22 20 19 20 20 20 20 20 20 20 20 20 20 20 19 19 19 19 19 19 19 18 18 18 18 18 18 18 18 18 18 18 18 18 17 17 17
21 17 19 20 21 21 21 21 22 21 21 21 21 21 21 21 20 20 20 19 19 19 19 20 19 19 19 19 19 19 19 19 18 18 18 18 18 18 18 18 18 17 17 17 17 17 17 17 17
21 18 20 20 21 21 21 21 21 21 20 20 20 20 20 20 20 20 20 20 19 19 19 19 19 19 19 19 19 19 19 18 18 18 18 18 18 18 17 17 17 17 17 17 17 17 17 17 17
20 19 20 21 22 22 21 21 21 21 20 20 20 20 20 19 19 19 20 20 20 20 19 19 19 19 19 19 19 19 18 18 18 18 18 17 17 17 17 17 17 17 17 17 17 17 17 17 17
20 20 21 22 22 21 21 21 20 20 21 22 21 21 20 20 19 20 20 20 20 19 19 19 19 19 19 19 18 18 18 18 18 18 17 17 17 17 17 17 17 17 17 16 16 16 16 16 16
20 21 22 22 21 21 21 20 20 20 21 21 21 20 20 20 20 20 19 19 19 19 19 19 19 19 19 18 18 18 18 18 17 17 17 17 17 17 16 16 16 16 16 16 16 16 16 16 16
21 21 21 21 21 21 20 20 19 20 21 20 20 20 20 20 19 19 19 19 19 19 19 19 19 19 18 18 18 18 17 17 17 17 17 17 16 16 16 16 16 16 16 16 16 16 16 16 16
21 20 20 20 20 20 21 20 19 20 20 19 19 19 19 19 19 19 19 19 19 19 19 19 19 18 18 18 18 17 17 17 17 17 17 16 16 16 16 16 16 16 15 15 15 15 15 15 15
20 20 20 20 19 20 21 20 19 20 19 18 18 18 18 18 18 19 19 19 19 18 18 18 18 18 18 17 17 17 17 16 16 16 16 16 16 16 16 16 15 15 15 15 15 15 15 15 15
19 19 20 20 19 19 20 19 19 19 18 18 18 18 18 18 18 18 18 18 18 18 18 18 18 18 17 17 17 17 16 16 16 16 16 16 15 15 15 15 15 15 14 14 14 15 15 15 15
20 20 19 19 19 19 18 18 18 18 18 18 18 18 18 18 18 18 18 18 18 18 17 17 17 17 17 17 16 16 16 16 16 15 15 15 15 15 15 15 14 14 14 14 14 14 14 14 14
20 20 19 19 19 19 18 18 18 17 17 17 17 17 17 17 18 18 18 18 17 17 17 17 17 17 16 16 16 16 15 15 15 15 15 14 14 14 14 14 14 14 14 14 14 14 14 14 14
20 19 19 19 19 19 18 18 18 17 17 17 17 17 17 17 17 17 17 18 18 18 17 17 17 16 16 16 15 15 15 15 15 14 14 14 14 14 14 14 14 14 13 13 13 13 13 13 13
20 20 20 19 19 18 18 18 18 17 17 17 17 17 17 17 17 17 17 17 17 17 17 16 16 16 15 15 15 15 14 14 14 14 14 14 14 14 14 13 13 13 13 13 13 13 13 13 12
20 21 20 19 18 17 18 17 18 17 16 16 17 17 17 17 17 17 17 17 17 17 16 16 16 16 15 15 14 14 14 14 14 14 14 13 13 13 13 13 13 13 13 13 12 12 12 12 12
21 20 19 19 18 17 17 17 17 16 17 16 16 17 17 17 17 16 16 17 16 16 16 16 15 15 15 14 14 14 14 14 13 13 13 13 13 13 13 13 12 12 12 12 12 12 12 12 12
20 19 18 16 16 17 17 17 16 16 17 16 16 17 17 17 16 16 16 16 15 15 15 15 15 15 14 14 14 14 13 13 13 13 13 13 12 12 12 12 12 12 12 12 12 11 11 11 11
19 18 17 17 16 16 17 16 16 16 16 16 16 16 17 16 16 16 15 15 15 15 15 15 14 14 14 14 13 13 13 13 13 12 12 12 12 12 12 11 11 11 11 11 11 11 11 11 11
19 18 17 17 16 16 16 16 16 16 16 16 16 16 16 16 16 15 15 15 14 14 14 14 14 14 13 13 13 13 12 12 12 12 12 12 12 11 11 11 11 11 11 11 11 11 11 11 10
19 17 17 15 16 15 15 16 16 16 16 15 15 15 15 15 15 15 15 14 14 14 14 14 14 13 13 13 13 12 12 12 12 12 12 12 11 11 11 11 11 11 11 10 10 10 10 10 10
18 16 14 15 16 16 16 16 16 16 15 15 14 15 15 15 15 15 14 14 14 14 14 14 13 13 13 12 12 12 12 12 11 11 11 11 11 11 11 11 10 10 10 10 10 10 10 10 10
18 17 15 13 14 15 15 16 16 15 15 14 14 15 15 15 15 14 14 14 14 13 13 13 13 13 13 12 12 12 12 11 11 11 11 11 11 11 10 10 10 10 10 10 10 10 10 10 9
18 17 15 15 15 14 14 15 16 14 14 14 14 14 15 14 14 14 14 13 13 13 13 13 13 13 12 12 12 11 11 11 11 11 11 10 10 10 10 10 10 10 10 10 10 10 10 9 9
Wind_Speed
2 2 3 3 5 5 3 4 3 3 1 1 4 5 6 4 3 3 2 10 15 14 16 19 19 18 18 18 17 17 16 16 16 16 16 16 15 14 14 13 12 11 10 9 9 8 8 8 7
2 3 3 5 5 2 4 3 2 2 1 1 5 5 5 3 3 5 5 9 15 15 16 17 19 18 18 17 17 16 16 15 15 15 15 14 14 13 12 11 11 10 9 9 8 8 7 7 7
1 2 4 5 4 4 3 2 2 2 1 2 4 5 3 2 3 4 6 13 13 12 14 17 19 18 17 17 16 15 15 15 14 14 14 13 13 12 11 10 10 9 9 8 7 7 6 6 6
3 4 5 5 1 4 4 4 2 1 3 5 4 4 3 3 3 6 12 14 14 11 13 17 19 18 17 17 16 15 15 14 14 13 13 12 11 11 10 9 9 8 7 7 6 6 5 5 5
4 5 5 3 3 5 4 4 2 1 1 2 3 4 2 4 8 13 13 14 14 11 11 15 18 17 16 16 15 14 14 13 13 12 11 11 10 10 9 9 8 7 6 6 5 5 4 4 4
5 5 5 0 4 5 4 3 0 1 2 2 3 4 2 3 9 11 11 10 11 11 9 13 16 16 15 15 14 14 13 12 12 11 11 10 9 9 8 8 7 7 7 6 5 5 5 4 4
5 5 4 2 2 4 2 1 2 3 3 2 3 4 2 4 7 10 10 9 9 9 8 8 12 13 14 14 13 13 12 11 11 10 10 9 9 8 8 8 8 7 7 6 6 6 6 6 6
5 5 2 1 2 4 3 2 0 2 2 2 3 5 5 7 10 10 10 9 8 7 6 5 7 9 10 10 12 11 11 11 10 10 9 9 8 8 8 8 8 8 8 7 7 8 8 7 7
4 5 1 4 5 4 2 1 1 1 3 2 1 2 5 14 14 12 10 8 7 7 5 4 5 6 7 8 9 10 10 10 9 8 9 8 6 6 6 7 7 8 8 8 8 8 9 8 8
4 3 5 5 5 3 1 0 1 2 3 1 2 5 11 15 13 13 11 11 10 9 8 5 5 5 6 7 7 7 7 7 7 6 6 5 5 5 5 6 8 8 8 8 7 7 8 7 6
4 5 4 4 4 3 2 1 1 4 2 4 6 11 13 13 11 10 10 9 9 8 8 7 6 5 5 4 4 4 5 5 5 5 5 4 4 3 4 3 4 5 5 4 5 5 5 5 4
3 4 3 3 1 3 3 2 1 1 2 2 6 11 13 13 11 10 9 8 6 6 7 6 6 5 5 4 3 4 3 3 4 4 5 4 2 2 2 2 2 2 3 2 2 2 4 4 4
2 3 2 1 2 2 4 3 2 1 1 5 8 10 12 11 9 7 6 6 6 6 6 6 6 6 5 4 3 4 3 3 4 3 3 4 2 2 1 1 1 2 2 2 2 2 3 3 3
2 0 2 3 1 1 4 2 2 2 3 7 8 8 8 9 8 7 6 6 6 6 5 5 5 6 5 5 4 3 3 3 3 3 3 4 3 2 1 1 1 1 1 2 2 2 2 2 2
1 2 5 4 2 0 4 3 1 2 6 7 6 7 6 6 6 6 6 5 5 4 4 4 5 4 5 5 5 3 3 3 2 2 3 3 3 3 2 1 1 1 1 1 1 1 1 2 2
3 4 3 5 3 1 4 3 3 3 7 6 5 5 4 4 4 3 3 3 3 3 3 2 3 4 4 4 3 2 2 2 2 2 2 2 3 3 2 1 1 1 1 0 1 1 1 2 3
5 2 2 5 3 1 3 3 2 3 6 5 5 5 4 3 2 2 3 3 3 3 3 3 2 2 2 3 2 2 2 1 2 2 2 2 2 3 2 1 1 1 0 1 1 1 1 2 3
2 1 2 3 3 2 1 2 2 1 4 5 4 4 4 4 3 2 3 3 3 3 3 2 2 2 2 2 2 1 1 1 1 1 1 2 2 3 2 1 0 1 0 1 1 1 1 1 2
3 2 2 4 2 2 1 2 3 2 3 4 4 5 5 5 3 3 3 3 3 3 3 2 2 1 2 1 1 1 1 0 0 0 1 2 2 2 2 1 1 1 1 1 1 1 1 1 1
4 2 1 3 1 2 1 2 2 2 3 4 6 6 6 5 3 3 3 3 3 3 2 2 1 1 1 1 1 1 1 1 1 0 1 0 1 2 2 2 1 1 1 0 1 0 0 0 0
2 4 4 3 2 3 2 4 3 2 2 2 3 3 4 6 5 4 4 4 3 3 3 2 1 1 1 1 2 2 2 1 1 1 1 1 0 1 1 1 1 1 1 1 1 1 1 1 1
3 4 4 3 2 2 1 2 5 3 3 3 4 3 4 4 5 5 5 4 3 3 2 2 1 2 2 2 3 3 2 1 1 1 0 1 2 1 1 1 1 1 1 1 2 1 1 1 1
3 2 3 2 2 1 2 1 6 2 4 6 6 5 4 4 5 5 5 4 3 2 2 2 2 3 2 2 2 2 1 0 1 1 1 1 2 2 1 1 0 1 1 1 1 0 1 1 2
3 5 5 5 4 1 2 3 6 4 6 5 4 5 4 4 4 4 3 3 2 2 2 2 3 2 2 3 3 3 2 1 1 1 1 1 2 1 2 1 1 0 1 1 1 1 1 1 2
5 5 5 5 4 5 2 2 7 6 5 5 6 4 3 4 4 4 4 4 3 2 2 2 2 2 2 2 2 2 2 2 1 0 0 1 1 2 2 1 1 1 1 1 1 1 1 1 1
0 6 5 4 5 5 3 4 6 5 3 2 2 3 3 3 4 4 4 4 3 2 2 2 2 2 2 2 1 1 1 1 0 1 1 1 2 3 2 2 2 2 2 1 0 1 1 1 2
3 2 4 5 1 2 5 6 6 2 2 1 1 2 3 3 4 4 4 4 3 2 2 3 2 1 1 1 1 1 1 0 0 1 1 1 2 2 2 2 2 2 1 1 0 1 2 1 1
2 6 5 4 2 3 5 5 5 5 5 3 2 3 4 3 3 4 3 3 3 3 2 2 2 1 1 1 1 1 0 1 1 1 1 2 2 2 2 2 1 1 1 1 0 1 1 1 2
2 3 4 3 3 3 4 7 4 5 5 5 5 4 4 4 5 4 3 3 3 3 2 2 2 2 1 0 0 1 1 1 1 1 2 2 2 2 2 1 1 1 1 1 0 1 1 1 2
2 3 5 2 3 3 3 7 5 4 4 4 4 3 3 3 3 3 3 3 3 2 2 2 1 1 1 0 0 1 1 2 2 2 3 2 2 2 2 1 1 1 1 1 1 2 2 2 2
Wind_Direction
183 121 102 76 59 49 287 271 263 313 346 26 121 121 131 136 166 184 110 136 136 144 153 154 153 149 144 140 136 133 131 130 129 129 131 133 135 137 139 141 143 145 145 144 142 139 136 133 132
129 123 73 66 87 59 286 267 283 275 222 89 83 80 83 74 65 109 126 139 139 143 148 154 155 152 147 143 140 138 137 136 135 135 137 138 139 140 142 145 147 147 147 148 148 146 141 139 140
150 95 88 78 111 177 250 267 252 339 28 63 70 62 80 95 125 143 148 140 136 140 146 156 156 154 151 148 145 144 144 143 143 143 143 144 145 146 147 149 151 152 152 155 155 153 149 147 149
104 58 58 73 200 229 235 258 265 326 24 39 86 78 64 40 137 140 138 139 137 138 146 157 158 157 156 153 151 151 151 151 151 150 149 151 153 154 155 158 161 162 163 165 165 161 159 158 161
63 81 65 33 277 261 251 266 241 186 81 61 96 102 37 18 102 124 136 141 142 142 147 157 159 159 159 157 157 157 158 158 158 158 158 160 161 163 166 170 174 176 177 178 181 179 180 184 185
58 71 87 262 279 282 276 269 177 107 98 94 103 106 48 98 118 131 135 137 141 144 145 155 161 161 163 163 162 163 164 165 166 167 169 171 173 175 179 183 188 192 195 196 197 203 208 211 215
107 100 142 194 275 297 284 328 137 152 138 142 131 116 113 130 130 129 127 128 131 137 140 151 162 165 166 167 169 170 171 172 174 176 180 183 187 191 197 200 203 208 210 214 217 221 225 226 227
125 106 112 211 221 266 291 350 136 140 142 110 124 143 170 159 134 122 120 124 131 137 143 148 155 158 162 169 174 176 178 182 186 189 193 197 201 206 211 213 217 223 226 231 235 236 236 238 239
92 80 177 213 202 245 278 9 353 30 96 77 102 147 149 138 133 128 128 132 145 153 156 154 152 152 158 168 180 182 185 191 196 201 205 207 210 221 230 231 231 235 237 241 247 248 246 246 248
92 133 225 219 203 212 293 187 202 93 73 54 78 98 125 136 143 147 154 160 166 172 174 168 162 160 162 176 179 180 185 192 198 203 210 210 216 231 242 252 250 248 245 247 253 257 254 254 253
147 193 241 254 217 184 143 88 71 133 180 200 166 142 140 142 150 156 163 169 176 176 175 177 177 172 173 178 171 175 182 183 193 202 208 212 220 237 254 265 270 268 260 258 263 263 257 254 249
169 249 233 266 159 133 152 148 98 120 232 129 138 141 147 152 161 167 169 171 170 171 182 182 180 180 186 184 183 179 183 189 196 205 204 202 215 245 256 253 259 265 262 260 266 269 267 265 258
204 284 298 183 106 110 106 110 116 1 25 90 116 134 154 159 164 165 161 161 164 178 188 190 185 189 189 187 200 193 196 199 200 198 204 201 202 226 244 264 264 265 257 252 260 264 273 277 279
219 265 338 348 63 84 108 70 84 270 99 103 123 145 157 161 161 158 161 166 178 191 197 189 190 190 187 199 202 202 196 205 199 191 204 201 197 197 212 241 262 280 279 276 276 278 259 268 275
10 25 3 357 21 94 103 14 251 216 120 124 138 149 155 158 159 172 176 172 181 193 193 186 188 188 190 202 204 193 182 183 184 180 192 190 186 182 181 208 240 292 295 300 304 295 291 283 280
43 44 5 321 360 9 125 248 267 161 137 143 143 143 153 153 161 166 159 154 166 166 164 184 188 180 189 193 189 174 151 158 167 159 164 179 184 170 150 185 232 316 341 316 249 268 273 282 288
33 41 322 315 343 63 146 229 272 149 148 159 157 152 161 153 148 160 155 159 163 159 154 160 155 168 183 173 153 135 135 145 141 138 141 153 166 160 145 166 208 113 6 270 261 248 235 273 288
270 316 311 294 305 58 125 248 278 174 162 178 171 167 166 171 200 173 140 141 142 142 132 132 127 120 131 129 119 112 103 90 90 107 143 152 154 160 140 136 158 115 194 279 289 266 263 266 283
177 169 254 271 273 101 150 258 273 197 168 183 192 192 188 196 192 153 146 141 127 123 113 106 95 79 105 127 154 154 167 159 125 229 163 149 157 163 147 162 171 142 162 242 281 261 270 300 319
153 149 266 303 358 115 120 291 290 192 204 203 204 207 202 193 177 164 158 153 148 145 140 126 127 122 145 168 151 143 139 155 182 257 20 184 190 187 161 161 178 165 157 39 340 308 245 316 36
196 188 211 219 1 49 81 334 309 285 252 231 217 220 209 198 199 182 177 187 169 155 163 167 187 163 134 112 106 89 70 57 49 29 357 338 13 141 135 170 175 170 170 229 254 245 206 256 273
259 229 184 168 105 295 99 272 277 267 285 259 252 237 227 210 196 188 185 190 184 180 157 136 124 94 92 112 136 143 149 181 232 233 264 345 28 51 74 114 161 190 211 234 248 201 208 202 234
221 81 120 134 139 21 11 178 279 292 265 259 250 240 225 204 187 187 188 183 177 157 138 131 108 82 87 110 127 125 104 54 21 44 38 4 4 11 22 20 214 217 228 236 249 217 199 207 211
116 69 56 55 70 341 262 191 271 248 235 246 242 233 216 191 175 170 159 153 150 128 120 111 104 83 78 90 99 112 119 106 78 47 32 360 341 334 349 1 8 289 232 250 270 267 240 229 229
66 75 23 358 3 255 272 216 250 257 246 229 234 228 202 181 162 156 152 154 143 122 107 100 108 89 86 95 96 103 128 130 135 171 57 337 317 304 305 306 289 274 262 263 261 264 279 253 243
133 133 158 216 233 274 316 243 254 262 282 265 214 187 173 170 160 157 157 156 152 134 119 109 108 111 122 131 114 84 86 118 188 221 226 257 270 276 284 285 278 281 285 292 274 264 267 256 256
131 142 163 146 194 281 282 282 297 277 319 337 133 164 198 184 168 163 154 158 156 149 159 144 127 111 101 108 109 96 90 69 308 306 278 266 268 277 289 288 285 289 291 296 296 284 281 290 280
108 143 94 111 170 271 289 275 254 260 261 264 251 223 217 191 174 171 170 172 165 159 156 122 134 158 179 137 133 119 61 325 303 311 313 300 300 304 301 296 300 320 327 323 312 291 292 311 296
21 66 95 108 156 179 263 272 235 241 243 234 241 235 216 195 188 186 181 173 155 136 133 138 156 149 135 93 81 56 10 344 335 319 312 315 317 316 298 290 309 314 317 316 302 287 293 301 302
211 179 146 147 244 196 212 267 289 274 253 220 227 226 208 195 180 172 165 154 150 152 159 164 148 135 195 204 91 16 356 347 341 323 316 322 320 319 313 311 309 301 305 293 270 283 292 288 295
Height
1501 1502 1503 1506 1509 1521 1521 1512 1504 1501 1497 1496 1497 1499 1501 1504 1508 1512 1506 1507 1512 1515 1519 1522 1525 1528 1530 1531 1533 1535 1536 1538 1539 1540 1542 1543 1544 1545 1547 1548 1548 1549 1550 1551 1551 1551 1552 1552 1552
1501 1502 1505 1506 1516 1528 1521 1508 1504 1499 1497 1497 1497 1499 1501 1503 1503 1504 1504 1508 1512 1516 1519 1522 1525 1528 1530 1532 1534 1535 1537 1538 1540 1541 1542 1544 1545 1546 1547 1548 1549 1549 1550 1551 1551 1551 1552 1552 1552
1501 1502 1505 1508 1519 1524 1514 1504 1501 1498 1497 1497 1499 1501 1502 1504 1504 1504 1506 1509 1513 1517 1520 1523 1526 1528 1530 1532 1534 1535 1537 1538 1540 1541 1542 1544 1545 1546 1547 1548 1549 1549 1550 1550 1551 1551 1552 1552 1552
1501 1503 1505 1513 1516 1514 1508 1501 1498 1498 1498 1498 1500 1502 1504 1505 1505 1506 1508 1511 1514 1517 1520 1523 1526 1528 1531 1532 1534 1536 1537 1539 1540 1541 1542 1543 1545 1546 1547 1548 1548 1549 1550 1550 1551 1551 1551 1551 1552
1501 1502 1511 1520 1515 1508 1502 1499 1498 1498 1498 1500 1501 1503 1504 1506 1506 1508 1510 1512 1515 1518 1521 1524 1526 1528 1531 1532 1534 1536 1537 1539 1540 1541 1542 1543 1544 1545 1546 1547 1548 1549 1549 1550 1550 1550 1551 1551 1551
1501 1503 1519 1523 1514 1505 1500 1498 1498 1498 1499 1500 1501 1503 1505 1507 1507 1509 1511 1514 1517 1519 1522 1524 1527 1529 1531 1533 1534 1536 1537 1539 1540 1541 1542 1543 1544 1545 1546 1546 1547 1548 1548 1549 1549 1549 1550 1550 1550
1502 1508 1516 1515 1513 1507 1500 1497 1497 1498 1499 1500 1501 1503 1505 1507 1508 1510 1513 1515 1518 1520 1523 1525 1527 1529 1531 1532 1534 1536 1537 1538 1540 1541 1541 1542 1543 1544 1545 1545 1546 1547 1547 1547 1548 1548 1549 1549 1549
1500 1506 1512 1515 1512 1506 1499 1497 1497 1498 1499 1500 1501 1502 1504 1506 1509 1511 1514 1516 1519 1521 1523 1525 1527 1528 1530 1532 1534 1535 1537 1538 1539 1540 1541 1542 1542 1543 1544 1545 1545 1546 1546 1546 1546 1547 1547 1547 1547
1501 1510 1516 1510 1507 1503 1498 1498 1498 1498 1498 1499 1500 1501 1502 1505 1507 1510 1513 1516 1518 1520 1522 1525 1527 1528 1530 1532 1533 1534 1536 1537 1538 1539 1540 1541 1541 1542 1543 1543 1544 1544 1545 1545 1545 1545 1545 1545 1545
1501 1512 1507 1501 1499 1498 1498 1498 1498 1499 1499 1500 1500 1501 1503 1504 1507 1509 1511 1514 1516 1519 1521 1524 1526 1528 1529 1531 1532 1533 1534 1536 1537 1538 1539 1539 1540 1541 1541 1542 1542 1543 1543 1543 1543 1543 1543 1543 1543
1500 1504 1500 1497 1496 1496 1497 1499 1499 1499 1501 1499 1499 1501 1503 1505 1508 1510 1512 1514 1516 1519 1521 1523 1525 1527 1529 1530 1531 1532 1533 1534 1535 1536 1537 1538 1538 1539 1539 1540 1540 1540 1540 1541 1540 1541 1541 1541 1541
1500 1499 1498 1496 1495 1496 1497 1498 1500 1500 1500 1499 1500 1501 1504 1505 1507 1510 1512 1514 1516 1519 1521 1523 1524 1526 1527 1529 1530 1531 1532 1533 1534 1534 1535 1536 1536 1537 1537 1537 1538 1538 1538 1538 1538 1538 1538 1538 1538
1500 1498 1497 1496 1496 1496 1497 1499 1500 1500 1500 1499 1500 1503 1504 1506 1508 1510 1513 1515 1517 1519 1520 1521 1523 1524 1526 1527 1528 1529 1530 1531 1532 1532 1533 1533 1534 1534 1534 1534 1535 1535 1535 1535 1535 1535 1535 1535 1534
1498 1498 1497 1496 1496 1496 1497 1499 1501 1500 1500 1501 1502 1503 1505 1506 1508 1510 1512 1514 1516 1518 1519 1520 1522 1523 1525 1526 1527 1528 1528 1529 1530 1530 1531 1531 1531 1532 1532 1532 1532 1532 1532 1532 1532 1531 1531 1531 1531
1498 1499 1499 1497 1497 1498 1498 1502 1501 1500 1500 1501 1503 1504 1505 1507 1509 1510 1511 1513 1515 1517 1518 1519 1521 1522 1523 1524 1525 1526 1527 1527 1528 1528 1528 1528 1528 1528 1529 1529 1529 1529 1529 1528 1528 1528 1528 1527 1527
1499 1504 1509 1501 1499 1499 1503 1509 1501 1500 1501 1501 1503 1504 1506 1507 1509 1510 1511 1513 1514 1516 1517 1518 1519 1520 1521 1521 1522 1524 1525 1525 1525 1525 1526 1526 1526 1526 1525 1525 1525 1526 1525 1525 1525 1524 1524 1524 1523
1509 1514 1512 1507 1500 1500 1503 1507 1501 1500 1501 1502 1503 1504 1506 1507 1508 1509 1510 1512 1513 1515 1516 1517 1517 1518 1519 1519 1520 1521 1521 1522 1523 1522 1523 1523 1523 1523 1522 1522 1522 1522 1522 1522 1522 1521 1520 1520 1519
1513 1513 1513 1511 1503 1502 1505 1506 1502 1501 1501 1502 1503 1503 1504 1505 1507 1508 1510 1511 1512 1513 1515 1515 1515 1516 1516 1517 1517 1518 1519 1519 1520 1520 1520 1520 1520 1520 1520 1519 1519 1519 1518 1519 1519 1518 1517 1516 1516
1505 1510 1513 1509 1502 1504 1507 1506 1503 1502 1502 1502 1503 1503 1503 1504 1506 1508 1509 1510 1511 1512 1513 1513 1514 1514 1514 1514 1515 1515 1515 1517 1518 1518 1518 1518 1518 1518 1517 1516 1516 1516 1515 1515 1515 1515 1514 1513 1513
1505 1510 1511 1507 1502 1504 1507 1506 1503 1502 1501 1501 1501 1501 1502 1503 1504 1506 1508 1508 1509 1510 1511 1512 1512 1512 1512 1512 1513 1513 1513 1514 1515 1516 1516 1516 1515 1515 1514 1514 1513 1513 1513 1512 1512 1512 1511 1510 1510
1504 1508 1507 1508 1505 1505 1507 1510 1505 1501 1500 1501 1501 1501 1501 1502 1502 1504 1505 1506 1507 1508 1508 1510 1510 1510 1511 1511 1511 1511 1511 1512 1513 1513 1513 1513 1513 1513 1512 1511 1511 1511 1510 1510 1509 1509 1508 1507 1507
1505 1498 1500 1504 1511 1517 1512 1523 1509 1503 1501 1499 1499 1499 1499 1499 1501 1502 1504 1505 1505 1506 1507 1508 1508 1509 1509 1509 1510 1510 1510 1510 1510 1511 1511 1511 1511 1510 1510 1509 1509 1508 1508 1507 1506 1506 1505 1505 1504
1498 1496 1500 1504 1511 1517 1516 1522 1515 1504 1503 1499 1496 1496 1497 1497 1498 1500 1502 1503 1504 1505 1506 1506 1507 1507 1508 1508 1509 1509 1508 1509 1509 1509 1509 1509 1509 1508 1508 1507 1506 1506 1505 1504 1504 1503 1502 1502 1501
1495 1500 1505 1511 1517 1527 1518 1523 1518 1507 1500 1497 1494 1494 1494 1496 1497 1498 1500 1502 1503 1504 1504 1505 1506 1506 1507 1507 1507 1507 1507 1507 1507 1507 1507 1507 1506 1506 1505 1505 1504 1504 1503 1502 1501 1500 1500 1499 1499
1498 1511 1527 1528 1535 1530 1516 1519 1515 1498 1494 1493 1492 1492 1493 1494 1495 1496 1498 1499 1501 1502 1502 1504 1505 1505 1505 1506 1506 1506 1506 1506 1506 1506 1505 1505 1504 1504 1503 1503 1502 1501 1501 1500 1499 1498 1498 1497 1496
1501 1508 1527 1535 1537 1529 1518 1518 1506 1494 1492 1491 1490 1491 1492 1492 1494 1495 1496 1498 1499 1500 1501 1502 1503 1503 1504 1504 1505 1505 1505 1505 1505 1504 1504 1503 1502 1502 1501 1501 1500 1499 1499 1498 1497 1496 1496 1495 1494
1502 1509 1510 1523 1527 1532 1524 1513 1501 1492 1491 1491 1490 1490 1490 1491 1492 1493 1495 1496 1498 1499 1501 1501 1502 1503 1503 1503 1503 1503 1504 1504 1503 1503 1502 1502 1501 1500 1499 1499 1498 1498 1497 1496 1496 1495 1494 1493 1492
1498 1505 1516 1524 1532 1534 1523 1516 1509 1496 1493 1491 1490 1490 1489 1490 1491 1492 1494 1495 1497 1498 1500 1500 1502 1502 1502 1502 1502 1502 1502 1502 1502 1501 1501 1500 1499 1498 1498 1497 1496 1495 1495 1494 1494 1493 1492 1491 1490
1503 1507 1514 1523 1525 1531 1531 1519 1495 1493 1490 1491 1489 1489 1489 1489 1490 1491 1493 1494 1496 1497 1499 1499 1500 1501 1501 1501 1501 1501 1501 1501 1501 1500 1500 1499 1498 1497 1496 1495 1494 1494 1493 1492 1491 1491 1490 1489 1488
1498 1503 1511 1521 1523 1525 1528 1518 1490 1489 1488 1488 1488 1488 1488 1489 1490 1490 1492 1493 1495 1496 1497 1498 1499 1500 1500 1501 1501 1501 1500 1500 1500 1499 1499 1498 1497 1496 1495 1494 1493 1492 1491 1491 1490 1489 1489 1488 1487